Notices

INTERRUPTION IN DATA AVAILABILITY. Please be advised that we are currently experiencing data feed issues on our daily data report tables for August 5th, 6th, 7th, and 13th, 2017. We thank you for your patience during this time of difficulty as we are working in rectifying this issue as soon as possible. Do not hesitate to contact us at ec.services.climatiques-climate.services.ec@canada.ca if you have any further questions or concerns.

Hourly Data Report for August 21, 2017

All times are specified in Local Standard Time (LST). Add 1 hour to adjust for Daylight Saving Time where and when it is observed.

KLEEFELD (MAFRI)
MANITOBA

49°31'04.000" N
96°54'04.000" W
246.50 m
5021500
71646
PTG

Download Data

Hourly Data (August 2017)
Hourly Data Report for August 21, 2017
Temp Definition
°C
Dew Point Temp Definition
°C
Rel Hum Definition
%
Wind Dir Definition
10's deg

Wind Spd Definition
km/h
Visibility Definition
km
Stn Press Definition
kPa
Hmdx Definition


Wind Chill Definition


Weather Definition


TIME
00:00 13.8 7.3 65 19 10   98.64     LegendNANA
01:00 13.5 7.7 68 19 9   98.63     LegendNANA
02:00 13.0 8.0 72 19 10   98.57     LegendNANA
03:00 13.3 8.1 71 17 7   98.53     LegendNANA
04:00 13.3 8.2 71 20 8   98.56     LegendNANA
05:00 12.3 8.2 76 20 12   98.61     LegendNANA
06:00 13.0 8.5 74 18 6   98.59     LegendNANA
07:00 13.4 8.2 71 18 7   98.61     LegendNANA
08:00 13.8 8.5 70 17 4   98.56     LegendNANA
09:00 14.1 8.9 71 14 3   98.58     LegendNANA
10:00 14.9 9.4 70 34 9   98.51     LegendNANA
11:00 16.0 11.2 73 16 5   98.51     LegendNANA
12:00 16.3 12.5 78 6 2   98.42     LegendNANA
13:00 15.4 12.7 84 3 9   98.39     LegendNANA
14:00 16.1 12.2 78 8 3   98.39     LegendNANA
15:00 17.2 11.0 67 3 7   98.36     LegendNANA
16:00 15.8 12.3 80 3 18   98.35     LegendNANA
17:00 16.6 10.7 68 6 12   98.37     LegendNANA
18:00 17.2 10.1 63 8 7   98.41     LegendNANA
19:00 15.3 10.2 71 29 7   98.48     LegendNANA
20:00 12.1 9.1 82 24 5   98.47     LegendNANA
21:00 12.3 9.7 84 25 9   98.51     LegendNANA
22:00 10.7 8.7 87 27 5   98.51     LegendNANA
23:00 11.4 9.1 86 26 11   98.49     LegendNANA

Notes on Data Quality.

Legend

  • E = Estimated
  • M = Missing
  • NA = Not Available
  • ‡ = Partner data that is not subject to review by the National Climate Archives
Date modified: